{"data":{"norad_id":67705,"intl_designator":"2026-025N","name":"STARLINK-36316","alt_names":[],"object_type":"PAYLOAD","status":"ACTIVE","operator":null,"country":"US","launch_date":"2026-02-07","launch_site_code":"AFWTR","launch_vehicle":null,"mission":null,"orbit_class":"UNKNOWN","rcs_meters":null,"size_class":null,"mass_kg":null,"dimensions":null,"purposes":["comms"],"wikipedia_slug":null,"has_3d_model":false,"image_url":null,"decayed_at":null,"tle_current":{"epoch":"2026-05-24T19:15:41.288544Z","epoch_age_seconds":106251,"freshness":"FRESH","line1":"1 67705U 26025N   26144.80256121  .00018075  00000+0  56075-3 0  9998","line2":"2 67705  97.2849 256.3652 0000354  38.6446 321.4822 15.33451638 17670","mean_motion":15.33451638,"eccentricity":3.54e-5,"inclination_deg":97.2849,"raan_deg":256.3652,"arg_perigee_deg":38.6446,"mean_anomaly_deg":321.4822,"bstar":0.00056075,"rev_number":1767,"period_min":93.90579815599,"perigee_km":465.28115895258,"apogee_km":465.76569011063,"semimajor_km":6843.6604245316,"source":"CELESTRAK","updated_at":"2026-05-25T13:38:21.665203Z"}}}